Effective Sunday, March 17, 2024, the National Weather Service National Data Buoy Center will discontinue its Dial-A-Buoy Interactive Voice Response system. For more information, see Service Change Notice 24-06 (PDF).

Station PTAW1 - 9444090 - Port Angeles, WA Image indicating link to RSS feed of recent meteorological observations for station PTAW1


Conditions at PTAW1 as of
(4:36 am PST)
1236 GMT on 02/26/2024:
     

Click on the graph icon in the table below to see a time series plot of the last five days of that observation.

5-day plot - Atmospheric Pressure Atmospheric Pressure (PRES):29.77 in
5-day plot - Air Temperature Air Temperature (ATMP): 37.0 °F
5-day plot - Water Temperature Water Temperature (WTMP): 47.5 °F
5-day plot - Wind Chill Wind Chill (CHILL): 31.5 °F
5-day plot - Wind Speed at 10 Meters Wind Speed at 10 meters (WSPD10M): 7.8 kts
5-day plot - Wind Speed at 20 Meters Wind Speed at 20 meters (WSPD20M): 7.8 kts
NOS Water Level Observation Network Water Level
Previous observations
TIME
(PST)
5-day plot - Wind Direction
WDIR
 
5-day plot - Wind Speed
WSPD
kts
5-day plot - Wind Gust
GST
kts
5-day plot - Wave Height
WVHT
ft
5-day plot - Dominant Wave Period
DPD
sec
5-day plot - Average Wave Period
APD
sec
5-day plot - Mean Wave Direction
MWD
 
5-day plot - Atmospheric Pressure
PRES
in
5-day plot - Pressure Tendency
PTDY
in
5-day plot - Air Temperature
ATMP
°F
5-day plot - Water Temperature
WTMP
°F
5-day plot - Dew Point
DEWP
°F
5-day plot - Salinity
SAL
psu
5-day plot - Visibility
VIS
nmi
5-day plot - Tide (above MLLW)
TIDE
ft
2024-02-26 04:30 am-------29.77- 37.4 47.5----
2024-02-26 04:24 am W 7.0 12.0----29.77- 37.4 47.5----
2024-02-26 04:18 am W 6.0 9.9----29.77- 37.2 47.5----
2024-02-26 04:12 am W 7.0 9.9----29.77- 37.0 47.5----
2024-02-26 04:06 am W 5.1 9.9----29.77- 36.9 47.5----
2024-02-26 04:00 amWNW 8.9 13.0----29.77-0.01 37.0 47.5----
2024-02-26 03:54 amWNW 8.9 17.1----29.78- 37.0 47.5----
2024-02-26 03:48 amWNW 13.0 18.1----29.78- 37.4 47.5----
2024-02-26 03:42 amWNW 15.0 21.0----29.78- 37.8 47.5----
2024-02-26 03:36 am-------29.78- 37.2 47.5----
2024-02-26 03:30 am-------29.77- 37.2 47.5----
2024-02-26 03:24 am W 7.0 11.1----29.77- 36.9 47.5----
2024-02-26 03:18 amWSW 7.0 11.1----29.77- 36.7 47.5----
2024-02-26 03:12 am W 6.0 12.0----29.77- 37.0 47.5----
2024-02-26 03:06 am W 8.0 13.0----29.77- 37.4 47.5----
2024-02-26 03:00 am W 8.0 13.0----29.77+0.00 37.9 47.5----
2024-02-26 02:54 am W 12.0 18.1----29.77- 38.3 47.5----
2024-02-26 02:48 am W 13.0 24.1----29.77- 38.5 47.5----
2024-02-26 02:42 am W 7.0 12.0----29.77- 37.8 47.5----
2024-02-26 02:36 am-------29.77- 37.8 47.5----
2024-02-26 02:30 am-------29.77- 37.8 47.5----
2024-02-26 02:24 am W 8.0 17.1----29.77- 37.9 47.5----
2024-02-26 02:18 amWSW 8.9 14.0----29.77- 37.9 47.5----
2024-02-26 02:12 am W 8.0 14.0----29.77- 37.8 47.5----
2024-02-26 02:06 amWSW 9.9 15.0----29.77- 38.1 47.5----
2024-02-26 02:00 am W 7.0 14.0----29.77+0.01 37.6 47.5----
2024-02-26 01:54 am W 8.9 15.0----29.77- 37.6 47.5----
2024-02-26 01:48 amWSW 9.9 15.9----29.77- 37.6 47.5----
2024-02-26 01:42 amWSW 9.9 14.0----29.77- 37.4 47.5----
2024-02-26 01:36 am-------29.77- 37.0 47.5----
2024-02-26 01:30 am-------29.77- 36.7 47.5----
2024-02-26 01:24 amWSW 8.9 14.0----29.78- 36.1 47.5----
2024-02-26 01:18 am SW 8.9 15.9----29.78- 36.0 47.5----
2024-02-26 01:12 amWSW 11.1 15.9----29.78- 36.1 47.5----
2024-02-26 01:06 amWSW 8.0 17.1----29.79- 35.4 47.5----
2024-02-26 01:00 amWSW 8.9 13.0----29.79+0.02 34.7 47.5----
2024-02-26 12:54 amWSW 9.9 14.0----29.79- 34.5 47.5----
2024-02-26 12:48 amWSW 5.1 9.9----29.79- 34.2 47.5----
2024-02-26 12:42 am W 7.0 15.0----29.80- 34.0 47.5----
2024-02-26 12:36 am-------29.80- 34.2 47.5----
2024-02-26 12:30 am-------29.80- 34.5 47.5----
2024-02-26 12:24 amWNW 15.9 22.9----29.79- 34.7 47.5----
2024-02-26 12:18 amWNW 19.0 28.0----29.79- 36.3 47.5----
2024-02-26 12:12 am NW 25.1 32.1----29.79- 37.6 47.5----
2024-02-26 12:06 am NW 24.1 34.0----29.78- 38.7 47.5----
2024-02-26 12:00 am NW 13.0 15.9----29.77+0.00 41.9 47.5----
2024-02-25 11:54 pmWNW 11.1 14.0----29.76- 41.7 47.5----
2024-02-25 11:48 pmWNW 7.0 9.9----29.76- 40.8 47.5----
2024-02-25 11:42 pmWNW 6.0 9.9----29.75- 41.2 47.5----
2024-02-25 11:36 pm-------29.75- 41.2 47.5----
2024-02-25 11:30 pm-------29.75- 41.2 47.5----
2024-02-25 11:24 pm W 7.0 8.9----29.75- 41.2 47.5----
2024-02-25 11:18 pm W 6.0 11.1----29.75- 41.2 47.5----
2024-02-25 11:12 pmWNW 13.0 20.0----29.75- 41.9 47.5----
2024-02-25 11:06 pmWNW 11.1 15.9----29.75- 42.1 47.5----
2024-02-25 11:00 pmWNW 12.0 25.1----29.75-0.01 42.3 47.5----
2024-02-25 10:54 pmWNW 11.1 17.1----29.75- 41.7 47.5----
2024-02-25 10:48 pm W 11.1 18.1----29.76- 41.9 47.5----
2024-02-25 10:42 pm W 8.0 12.0----29.76- 41.7 47.7----
2024-02-25 10:36 pm-------29.76- 41.9 47.7----
2024-02-25 10:30 pm-------29.76- 41.7 47.7----
2024-02-25 10:24 pm W 8.0 12.0----29.76- 41.9 47.7----
2024-02-25 10:18 pm W 8.0 15.0----29.76- 41.9 47.7----
2024-02-25 10:12 pm W 6.0 14.0----29.76- 41.9 47.7----
2024-02-25 10:06 pmWSW 7.0 13.0----29.76- 41.4 47.7----
2024-02-25 10:00 pm W 5.1 8.9----29.77+0.01 41.4 47.7----
2024-02-25 09:54 pm W 5.1 8.0----29.77- 41.0 47.7----
2024-02-25 09:48 pm W 8.0 15.9----29.77- 41.5 47.7----
2024-02-25 09:42 pm W 8.9 19.0----29.77- 41.5 47.7----
2024-02-25 09:36 pm-------29.78- 42.1 47.7----
2024-02-25 09:30 pm-------29.78- 41.9 47.7----
2024-02-25 09:24 pmWNW 12.0 15.0----29.78- 42.1 47.7----
2024-02-25 09:18 pmWNW 15.0 19.0----29.77- 42.3 47.7----
2024-02-25 09:12 pm W 11.1 17.1----29.77- 42.1 47.7----
2024-02-25 09:06 pmWNW 11.1 15.9----29.77- 42.3 47.7----
2024-02-25 09:00 pm W 8.0 17.1----29.77+0.04 42.1 47.7----
2024-02-25 08:54 pmWNW 9.9 15.0----29.77- 42.1 47.7----
2024-02-25 08:48 pm W 8.9 14.0----29.77- 41.9 47.7----
2024-02-25 08:42 pm W 8.0 17.1----29.77- 41.9 47.7----
2024-02-25 08:36 pm-------29.77- 41.9 47.7----
2024-02-25 08:30 pm-------29.77- 42.1 47.7----
2024-02-25 08:24 pm W 9.9 19.0----29.78- 41.7 47.7----
2024-02-25 08:18 pmWNW 13.0 21.0----29.77- 41.4 47.7----
2024-02-25 08:12 pm W 11.1 15.9----29.77- 41.2 47.7----
2024-02-25 08:06 pm W 11.1 17.1----29.77- 41.0 47.7----
2024-02-25 08:00 pm W 12.0 17.1----29.77+0.06 41.0 47.7----
2024-02-25 07:54 pm W 9.9 17.1----29.77- 41.2 47.7----
2024-02-25 07:48 pm W 13.0 21.0----29.77- 41.2 47.7----
2024-02-25 07:42 pm W 8.9 22.9----29.77- 41.2 47.7----
2024-02-25 07:36 pm-------29.77-- 47.7----
2024-02-25 07:30 pm-------29.77-- 47.7----
2024-02-25 07:24 pmWNW 14.0 19.0----29.76-- 47.7----
2024-02-25 07:18 pm W 12.0 19.0----29.76-- 47.7----
2024-02-25 07:12 pmWNW 14.0 21.0----29.76-- 47.7----
2024-02-25 07:06 pmWNW 15.9 28.0----29.76-- 47.7----
2024-02-25 07:00 pmWNW 12.0 19.0----29.76+0.07- 47.7----
2024-02-25 06:54 pmWNW 15.9 28.9----29.76-- 47.7----
2024-02-25 06:48 pmWNW 22.9 31.1----29.75-- 47.7----
2024-02-25 06:42 pmWNW 19.0 29.9----29.75-- 47.7----
2024-02-25 06:36 pm-------29.74- 43.3 47.7----
2024-02-25 06:30 pm-------29.74- 43.3 47.7----
2024-02-25 06:24 pmWNW 15.9 24.1----29.74- 43.3 47.7----
2024-02-25 06:18 pmWNW 15.0 21.0----29.74- 43.0 47.7----
2024-02-25 06:12 pmWNW 14.0 19.0----29.73- 42.8 47.7----
2024-02-25 06:06 pmWNW 15.0 22.0----29.73- 42.8 47.7----
2024-02-25 06:00 pmWNW 14.0 19.0----29.73+0.06 42.6 47.7----
2024-02-25 05:54 pmWNW 12.0 18.1----29.73- 42.6 47.7----
2024-02-25 05:48 pmWNW 13.0 22.0----29.73- 42.8 47.7----
2024-02-25 05:42 pmWNW 17.1 27.0----29.73- 43.2 47.7----
2024-02-25 05:36 pm-------29.73- 43.0 47.7----
2024-02-25 05:30 pm-------29.73- 42.8 47.7----
2024-02-25 05:24 pm W 19.0 34.0----29.73- 42.1 47.7----
2024-02-25 05:18 pm W 25.1 39.0----29.72- 42.1 47.7----
2024-02-25 05:12 pmWNW 27.0 35.9----29.72- 42.4 47.7----
2024-02-25 05:06 pmWNW 31.1 41.0----29.71- 42.3 47.7----
2024-02-25 05:00 pmWNW 28.9 38.1----29.70+0.04 43.2 47.7----
2024-02-25 04:54 pmWNW 26.0 35.0----29.70- 43.7 47.7----
2024-02-25 04:48 pmWNW 26.0 35.9----29.70- 43.7 47.7----
2024-02-25 04:42 pm NW 26.0 32.1----29.69- 44.1 47.7----
2024-02-25 04:36 pm-------29.70- 44.4 47.7----
2024-02-25 04:30 pm-------29.70- 45.0 47.7----
2024-02-25 04:24 pmWNW 20.0 34.0----29.70- 45.3 47.7----
2024-02-25 04:18 pmWNW 25.1 34.0----29.70- 44.8 47.7----
2024-02-25 04:12 pmWNW 25.1 34.0----29.70- 44.6 47.7----
2024-02-25 04:06 pmWNW 24.1 36.9----29.69- 44.6 47.7----
2024-02-25 04:00 pmWNW 27.0 35.9----29.69+0.03 44.2 47.7----
2024-02-25 03:54 pmWNW 29.9 47.0----29.68- 43.9 47.7----
2024-02-25 03:48 pmWNW 24.1 36.9----29.69- 43.7 47.7----
2024-02-25 03:42 pmWNW 24.1 32.1----29.68- 43.7 47.7----
2024-02-25 03:36 pm-------29.68- 43.9 47.7----
2024-02-25 03:30 pm-------29.68- 44.1 47.7----
2024-02-25 03:24 pmWNW 20.0 28.9----29.68- 44.2 47.7----
2024-02-25 03:18 pmWNW 18.1 31.1----29.67- 44.2 47.7----
2024-02-25 03:12 pmWNW 18.1 27.0----29.68- 44.4 47.7----
2024-02-25 03:06 pmWNW 20.0 28.0----29.68- 44.4 47.7----
2024-02-25 03:00 pmWNW 22.0 29.9----29.67-0.02 44.8 47.7----
2024-02-25 02:54 pm W 17.1 31.1----29.67- 44.4 47.7----
2024-02-25 02:48 pm W 13.0 27.0----29.67- 44.4 47.7----
2024-02-25 02:42 pmWNW 18.1 35.9----29.68- 44.6 47.7----
2024-02-25 02:36 pm-------29.68- 44.6 47.7----
2024-02-25 02:30 pm-------29.68- 45.0 47.7----
2024-02-25 02:24 pmWNW 18.1 28.9----29.68- 44.8 47.7----
2024-02-25 02:18 pmWNW 21.0 35.0----29.67- 45.0 47.7----
2024-02-25 02:12 pmWNW 26.0 35.0----29.67- 44.8 47.7----
2024-02-25 02:06 pmWNW 24.1 35.0----29.67- 44.8 47.7----
2024-02-25 02:00 pmWNW 25.1 35.9----29.67-0.08 45.1 47.7----
2024-02-25 01:54 pmWNW 25.1 45.1----29.66- 45.3 47.7----
2024-02-25 01:48 pm NW 29.9 42.9----29.65- 46.8 47.7----
2024-02-25 01:42 pm W 8.9 17.1----29.66- 52.9 47.7----
2024-02-25 01:36 pm-------29.66- 52.7 47.7----
2024-02-25 01:30 pm-------29.66- 53.1 47.7----
2024-02-25 01:24 pm W 5.1 12.0----29.66- 53.2 47.7----
2024-02-25 01:18 pm W 8.9 15.0----29.66- 53.1 47.7----
2024-02-25 01:12 pmWNW 9.9 17.1----29.66- 52.7 47.7----
2024-02-25 01:06 pmWNW 8.9 12.0----29.66- 52.9 47.7----
2024-02-25 01:00 pm W 8.0 14.0----29.66-0.11 53.1 47.7----
2024-02-25 12:54 pm W 8.9 14.0----29.67- 53.1 47.7----
2024-02-25 12:48 pm W 8.9 13.0----29.67- 52.9 47.7----
2024-02-25 12:42 pm NW 7.0 11.1----29.67- 52.5 47.7----
2024-02-25 12:36 pm-------29.68-------
2024-02-25 12:30 pm-------29.68-------
2024-02-25 12:24 pmWNW 9.9 13.0----29.69-------
2024-02-25 12:18 pm NW 11.1 15.0----29.69-------
2024-02-25 12:12 pm NW 12.0 15.0----29.69-------
2024-02-25 12:06 pmWNW 9.9 14.0----29.69-------
2024-02-25 12:00 pmWNW 9.9 13.0----29.70-0.09------
2024-02-25 11:54 amSSW 1.9 6.0----29.70-------
2024-02-25 11:48 am NE 1.9 4.1----29.70-------
2024-02-25 11:42 am NE 1.9 5.1----29.71-------
2024-02-25 11:36 am-------29.71-- 47.7----
2024-02-25 11:30 am-------29.72-- 47.7----
2024-02-25 11:24 amENE 1.9 4.1----29.72-- 47.7----
2024-02-25 11:18 am N 1.9 4.1----29.73-- 47.7----
2024-02-25 11:12 am NE 1.9 2.9----29.73-- 47.7----
2024-02-25 11:06 amNNE 1.9 1.9----29.74-- 47.7----
2024-02-25 11:00 am NE 1.9 2.9----29.74-0.07- 47.7----
2024-02-25 10:54 amENE 2.9 5.1----29.74-- 47.7----
2024-02-25 10:48 am NE 2.9 5.1----29.75-- 47.7----
2024-02-25 10:42 am NE 5.1 5.1----29.75-- 47.7----
2024-02-25 10:36 am-------29.76- 47.1 47.7----
2024-02-25 10:30 am-------29.76- 47.5 47.7----
2024-02-25 10:24 am- 0.0 1.0----29.77- 47.5 47.7----
2024-02-25 10:18 am NE 1.0 2.9----29.77- 47.1 47.7----
2024-02-25 10:12 am N 2.9 2.9----29.77- 46.9 47.7----
2024-02-25 10:06 am N 4.1 5.1----29.77- 46.9 47.7----
2024-02-25 10:00 am- 0.0 5.1----29.77-0.06 46.8 47.7----
2024-02-25 09:54 amENE 1.9 5.1----29.77- 46.9 47.7----
2024-02-25 09:48 am E 1.9 2.9----29.77- 46.8 47.7----
2024-02-25 09:42 amENE 2.9 2.9----29.77- 46.8 47.7----
2024-02-25 09:36 am-------29.77-- 47.7----
2024-02-25 09:30 am-------29.78-- 47.7----
2024-02-25 09:24 amENE 1.0 2.9----29.78-- 47.7----
2024-02-25 09:18 am SE 4.1 5.1----29.78-- 47.7----
2024-02-25 09:12 amESE 5.1 6.0----29.78-- 47.7----
2024-02-25 09:06 am S 1.0 2.9----29.79-- 47.7----
2024-02-25 09:00 amWSW 1.9 4.1----29.79-0.06- 47.7----
2024-02-25 08:54 amSSE 1.9 2.9----29.79-- 47.7----
2024-02-25 08:48 am- 0.0 2.9----29.79-- 47.7----
2024-02-25 08:42 amSSE 1.9 2.9----29.80-- 47.7----
2024-02-25 08:36 am-------29.80- 45.7 47.7----
2024-02-25 08:30 am-------29.80- 45.5 47.7----
2024-02-25 08:24 am- 0.0 1.9----29.80- 45.3 47.7----
2024-02-25 08:18 am SW 1.9 2.9----29.80- 45.3 47.7----
2024-02-25 08:12 am- 0.0 2.9----29.80- 45.1 47.7----
2024-02-25 08:06 am SW 2.9 2.9----29.81- 45.1 47.7----
2024-02-25 08:00 am W 1.0 1.9----29.81-0.08 45.1 47.7----
2024-02-25 07:54 am S 1.0 2.9----29.81- 45.0 47.7----
2024-02-25 07:48 am S 1.0 4.1----29.81- 45.0 47.7----
2024-02-25 07:42 am S 2.9 4.1----29.82- 45.0 47.7----
2024-02-25 07:36 am-------29.82- 45.0 47.7----
2024-02-25 07:30 am-------29.83- 45.1 47.7----
2024-02-25 07:24 amWNW 2.9 4.1----29.83- 45.0 47.7----
2024-02-25 07:18 am S 1.9 2.9----29.83- 44.8 47.7----
2024-02-25 07:12 am W 1.0 5.1----29.83- 45.0 47.7----
2024-02-25 07:06 am SW 2.9 5.1----29.83- 44.8 47.7----
2024-02-25 07:00 am SW 1.9 2.9----29.83-0.06 44.8 47.7----
2024-02-25 06:54 am S 1.9 2.9----29.83- 44.8 47.7----
2024-02-25 06:48 amSSW 4.1 5.1----29.84- 44.6 47.7----
2024-02-25 06:42 am- 0.0 1.9----29.84- 44.8 47.7----
2024-02-25 06:36 am-------29.84-------
2024-02-25 06:30 am-------29.85-------
2024-02-25 06:24 am SW 1.9 2.9----29.85-------
2024-02-25 06:18 am S 1.9 2.9----29.85-------
2024-02-25 06:12 am SW 4.1 4.1----29.85-------
2024-02-25 06:06 am SW 2.9 5.1----29.86-------
2024-02-25 06:00 am S 4.1 5.1----29.85-0.07------
2024-02-25 05:54 amSSE 2.9 5.1----29.86-------
2024-02-25 05:48 am S 2.9 5.1----29.86-------
2024-02-25 05:42 am S 4.1 5.1----29.87-------
2024-02-25 05:36 am-------29.87-- 47.7----
2024-02-25 05:30 am-------29.88-- 47.7----
2024-02-25 05:24 amSSW 2.9 5.1----29.88-- 47.7----
2024-02-25 05:18 amSSW 4.1 5.1----29.88-- 47.7----
2024-02-25 05:12 am SW 4.1 6.0----29.88-- 47.7----
2024-02-25 05:06 am SW 1.9 4.1----29.88-- 47.7----
2024-02-25 05:00 amSSW 4.1 5.1----29.89-0.07- 47.7----
2024-02-25 04:54 amSSW 2.9 4.1----29.89-- 47.7----